Location: Winthrop
(48.4780°N, 120.1850°W)
Time: 19:43:59
(UTC-08:00)

Envisat - Pass Details

Date: 26 November 2022
Orbit: 763 x 765 km, 98.2° (Epoch: 05 February)

Event Time Altitude Azimuth Distance (km) Brightness Sun altitude
Rises 17:01:32 0° 224° (SW) 3,220 7.7 -8.3°
Reaches altitude 10° 17:05:57 10° 261° (W) 2,303 7.0 -9.0°
Maximum altitude 17:07:11 11° 275° (W) 2,248 6.5 -9.2°
Drops below altitude 10° 17:08:26 10° 290° (WNW) 2,307 6.3 -9.4°
Sets 17:12:54 0° 327° (NNW) 3,242 6.4 -10.0°
